OE3PDB-3 Weather Reports


Display with metric or nautical units.
time (UTC)temp
F
wind
direction
speed
MPH
gust
MPH
rain 1hr
in
rain 24hr
in
rain mn
in
humidity
%
barometer
mb
20260503021048 51 247 0.0 0.0 0.00 0.00 0.00 59 1017.1
20260503020048 52 247 0.0 0.0 0.00 0.00 0.00 58 1017.1
20260503015048 52 270 0.0 0.0 0.00 0.00 0.00 57 1017.1
20260503014048 52 270 0.0 0.0 0.00 0.00 0.00 57 1017.1
20260503013048 52 247 0.0 0.0 0.00 0.00 0.00 57 1017.2
20260503012048 52 247 0.0 0.0 0.00 0.00 0.00 57 1017.2
20260503011048 52 247 0.0 0.0 0.00 0.00 0.00 56 1017.3
20260503010048 52 247 0.0 0.0 0.00 0.00 0.00 56 1017.3
20260503005048 52 247 0.0 0.0 0.00 0.00 0.00 57 1017.5
20260503004048 52 247 0.0 0.0 0.00 0.00 0.00 56 1017.5
20260503003048 53 247 0.0 0.0 0.00 0.00 0.00 56 1017.4
20260503002048 52 247 0.0 0.0 0.00 0.00 0.00 56 1017.6
20260503001048 53 247 0.0 0.0 0.00 0.00 0.00 55 1017.6
20260502235047 53 247 0.0 0.0 0.00 0.00 0.00 54 1017.9
20260502234047 54 247 0.0 0.0 0.00 0.00 0.00 54 1018.0
20260502233047 54 247 0.0 0.0 0.00 0.00 0.00 52 1018.1
20260502232047 55 247 0.0 0.0 0.00 0.00 0.00 51 1018.2
20260502231047 55 247 0.0 0.0 0.00 0.00 0.00 51 1018.4
20260502230047 55 247 0.0 0.0 0.00 0.00 0.00 51 1018.5
20260502225047 55 247 0.0 0.0 0.00 0.00 0.00 51 1018.4
20260502224047 56 270 0.0 0.0 0.00 0.00 0.00 50 1018.5
20260502223047 56 247 0.0 0.0 0.00 0.00 0.00 51 1018.5
20260502222047 55 247 0.0 0.0 0.00 0.00 0.00 51 1018.7
20260502221047 55 247 0.0 0.0 0.00 0.00 0.00 51 1018.6
20260502220047 55 247 0.0 0.0 0.00 0.00 0.00 51 1018.6
20260502215047 55 247 0.0 0.0 0.00 0.00 0.00 51 1018.7
20260502214047 55 247 0.0 0.0 0.00 0.00 0.00 51 1018.7
20260502213047 55 247 0.0 0.0 0.00 0.00 0.00 51 1018.7
20260502212047 55 247 0.0 0.0 0.00 0.00 0.00 51 1018.9
20260502211047 55 270 0.0 0.0 0.00 0.00 0.00 52 1018.9
20260502210047 55 270 0.0 0.0 0.00 0.00 0.00 51 1019.0
20260502205047 55 270 0.0 0.0 0.00 0.00 0.00 50 1019.0
20260502204047 56 270 0.0 0.0 0.00 0.00 0.00 49 1019.1
20260502203047 56 270 0.0 0.0 0.00 0.00 0.00 48 1019.1
20260502202047 57 270 0.0 0.0 0.00 0.00 0.00 47 1019.2
20260502201047 57 270 0.0 0.0 0.00 0.00 0.00 47 1019.2
20260502200047 57 270 0.0 0.0 0.00 0.00 0.00 46 1019.3
20260502195047 58 270 0.0 0.0 0.00 0.00 0.00 45 1019.3
20260502194047 59 270 0.0 0.0 0.00 0.00 0.00 44 1019.4
20260502193047 59 270 0.0 0.0 0.00 0.00 0.00 44 1019.5
20260502192047 60 270 0.0 0.0 0.00 0.00 0.00 42 1019.4
20260502191047 60 270 0.0 0.0 0.00 0.00 0.00 41 1019.4
20260502190047 61 270 0.0 0.0 0.00 0.00 0.00 40 1019.4
20260502185047 61 270 0.0 0.0 0.00 0.00 0.00 39 1019.3
20260502184047 62 270 0.0 0.0 0.00 0.00 0.00 38 1019.3
20260502183048 63 270 0.0 0.0 0.00 0.00 0.00 37 1019.1
20260502182048 64 270 0.0 0.0 0.00 0.00 0.00 35 1019.1
20260502181048 65 270 0.0 0.0 0.00 0.00 0.00 34 1018.9
20260502164048 74 270 0.0 0.0 0.00 0.00 0.00 28 1019.2
20260502163048 76 157 0.0 0.0 0.00 0.00 0.00 27 1019.3
20260502162048 77 225 0.0 0.0 0.00 0.00 0.00 26 1019.4
20260502161048 78 180 0.0 0.0 0.00 0.00 0.00 26 1019.5
20260502152048 82 292 0.0 0.0 0.00 0.00 0.00 24 1020.1
20260502151048 82 135 0.0 0.0 0.00 0.00 0.00 25 1020.2
20260502123048 76 135 0.0 0.0 0.00 0.00 0.00 31 1021.8
20260502122048 75 247 0.0 0.0 0.00 0.00 0.00 32 1021.9
20260502121048 74 45 0.0 0.0 0.00 0.00 0.00 32 1022.0
20260502115048 71 180 0.0 0.0 0.00 0.00 0.00 34 1022.4
20260502114048 70 225 0.0 0.0 0.00 0.00 0.00 33 1022.5
20260502113048 69 90 0.0 0.0 0.00 0.00 0.00 34 1022.6
20260502112048 68 202 0.0 0.0 0.00 0.00 0.00 35 1022.7
20260502111048 68 180 0.0 0.0 0.00 0.00 0.00 35 1022.8
20260502110048 68 337 0.0 0.0 0.00 0.00 0.00 35 1022.7
20260502105048 68 247 0.0 0.0 0.00 0.00 0.00 35 1023.1
20260502104048 67 202 0.0 0.0 0.00 0.00 0.00 35 1023.1
20260502103048 67 45 0.0 0.0 0.00 0.00 0.00 35 1023.3
20260502102048 68 112 0.0 0.0 0.00 0.00 0.00 35 1023.3
20260502101049 68 135 0.0 0.0 0.00 0.00 0.00 37 1023.4
20260502091049 70 112 0.0 0.0 0.00 0.00 0.00 39 1024.0
20260502071049 69 112 0.0 0.0 0.00 0.00 0.00 46 1024.6
20260502070049 62 67 0.0 0.0 0.00 0.00 0.00 54 1024.6
20260502065049 55 67 0.0 0.0 0.00 0.00 0.00 57 1024.6
20260502064049 55 112 0.0 0.0 0.00 0.00 0.00 56 1024.6
20260502063049 56 67 0.0 0.0 0.00 0.00 0.00 55 1024.6
20260502062049 56 90 0.0 0.0 0.00 0.00 0.00 56 1024.6
20260502061049 54 67 0.0 0.0 0.00 0.00 0.00 58 1024.6
20260502060049 54 67 0.0 0.0 0.00 0.00 0.00 58 1024.6
20260502055049 54 67 0.0 0.0 0.00 0.00 0.00 59 1024.6
20260502054049 53 67 0.0 0.0 0.00 0.00 0.00 58 1024.6
20260502053049 54 67 0.0 0.0 0.00 0.00 0.00 59 1024.6
20260502052049 53 67 0.0 0.0 0.00 0.00 0.00 61 1024.6
20260502051049 49 67 0.0 0.0 0.00 0.00 0.00 64 1024.7
20260502050049 48 67 0.0 0.0 0.00 0.00 0.00 64 1024.6
20260502045049 48 67 0.0 0.0 0.00 0.00 0.00 64 1024.4
20260502044049 47 67 0.0 0.0 0.00 0.00 0.00 64 1024.4
20260502043050 47 67 0.0 0.0 0.00 0.00 0.00 64 1024.4
20260502042049 47 67 0.0 0.0 0.00 0.00 0.00 64 1024.4
20260502041049 47 67 0.0 0.0 0.00 0.00 0.00 64 1024.3
20260502040049 47 67 0.0 0.0 0.00 0.00 0.00 63 1024.3
20260502035049 47 67 0.0 0.0 0.00 0.00 0.00 63 1024.2
20260502034049 47 67 0.0 0.0 0.00 0.00 0.00 63 1024.2
20260502033049 47 67 0.0 0.0 0.00 0.00 0.00 63 1024.1
20260502032049 48 67 0.0 0.0 0.00 0.00 0.00 62 1024.2
20260502031049 48 67 0.0 0.0 0.00 0.00 0.00 62 1024.2
20260502030049 48 67 0.0 0.0 0.00 0.00 0.00 62 1024.2
20260502025049 48 67 0.0 0.0 0.00 0.00 0.00 63 1024.1
20260502024049 47 112 0.0 0.0 0.00 0.00 0.00 62 1024.2
20260502023049 48 112 0.0 0.0 0.00 0.00 0.00 60 1024.3
20260502022049 48 112 0.0 0.0 0.00 0.00 0.00 60 1024.3